Location: Mercogliano
(40.9167°N, 14.7333°E)
Time: 00:53:04
(UTC+00:00)

Cosmos 1603 - Visible Passes

Search period start: 24 January 2021 00:00
Search period end: 03 February 2021 00:00
Orbit: 831 x 859 km, 71.0° (Epoch: 23 January)

Date Brightness Start Highest point End Pass type
(mag) Time Alt. Az. Time Alt. Az. Time Alt. Az.
24 Jan 5.7 05:13:39 10° SSE 05:18:31 32° ESE 05:23:26 10° NE visible
25 Jan 5.8 04:59:44 10° SSE 05:04:34 31° ESE 05:09:26 10° NE visible
26 Jan 5.8 04:45:50 10° SSE 04:50:36 30° ESE 04:55:25 10° NE visible
26 Jan 7.3 17:11:12 10° W 17:12:09 10° W 17:13:06 10° WSW visible
27 Jan 5.8 04:31:55 10° SSE 04:36:39 29° ESE 04:41:24 10° NE visible
27 Jan 7.3 16:56:47 10° W 16:58:12 11° W 16:59:37 10° WSW visible
28 Jan 5.8 04:18:01 10° SSE 04:22:41 28° ESE 04:27:23 10° NE visible
28 Jan 7.2 16:42:31 10° WNW 16:44:16 11° W 16:46:01 10° WSW visible
29 Jan 5.8 04:04:07 10° SSE 04:08:43 27° ESE 04:13:21 10° NE visible
29 Jan 4.1 05:47:16 10° SW 05:52:35 42° WNW 05:57:57 10° N visible
30 Jan 5.8 03:50:13 10° SSE 03:54:46 26° ESE 03:59:21 10° NE visible
30 Jan 4.0 05:33:16 10° SW 05:38:35 44° WNW 05:43:59 10° NNE visible
31 Jan 5.8 03:36:20 10° SSE 03:40:48 25° ESE 03:45:19 10° NE visible
31 Jan 4.0 05:19:14 10° SW 05:24:36 45° WNW 05:30:02 10° NNE visible
01 Feb 5.8 03:22:27 10° SSE 03:26:51 24° ESE 03:31:18 10° NE visible
01 Feb 3.9 05:05:14 10° SW 05:10:37 46° WNW 05:16:04 10° NNE visible
02 Feb 5.8 03:08:33 10° SSE 03:12:54 23° E 03:17:15 10° NE visible
02 Feb 3.9 04:51:13 10° SW 04:56:38 48° WNW 05:02:07 10° NNE visible
